Regional Weather Roundup
Issued by NWS Raleigh/Durham, NC

Home | Current Version | Previous Version | Text Only | Print | Product List | Glossary On
Versions: 1 2 3 4 5 6 7 8 9 10 11 12 13 14 15 16 17 18 19 20 21 22 23 24 25 26 27 28 29 30 31 32 33 34 35 36 37 38 39 40 41 42 43 44 45 46 47 48 49 50
000
ASUS42 KRAH 302010
RWRRAH
NORTH CAROLINA WEATHER ROUNDUP
NATIONAL WEATHER SERVICE RALEIGH NC
400 PM EDT SAT JUL 30 2016

NOTE: "FAIR" INDICATES FEW OR NO CLOUDS BELOW 12,000 FEET WITH NO
SIGNIFICANT WEATHER AND/OR OBSTRUCTIONS TO VISIBILITY.

NCZ001-053-055-056-065-067-302100-
WESTERN NORTH CAROLINA

CITY           SKY/WX    TMP DP  RH WIND       PRES   REMARKS
ASHEVILLE      TSTM      70  67  90 NW14G25   30.09R VSB 3/4
JEFFERSON      SUNNY     80  63  55 W13       30.11S
HICKORY        CLOUDY    86  73  65 N5        29.98F
RUTHERFORDTON    N/A     89  70  53 SE6       29.98F
MOUNT AIRY     RAIN      79  75  87 W3        30.01S
BOONE          SUNNY     81  58  45 NW12G18   30.12S
$$

NCZ021-022-025-041-071-084-088-302100-
CENTRAL NORTH CAROLINA

CITY           SKY/WX    TMP DP  RH WIND       PRES   REMARKS
CHARLOTTE      PTSUNNY   91  67  44 SW7       29.96F
GREENSBORO     MOSUNNY   92  64  39 W12G17    29.94F
WINSTON-SALEM  MOSUNNY   91  66  43 VRB6      29.96F
RALEIGH-DURHAM PTSUNNY   95  74  50 W9        29.92F HX 105
FORT BRAGG     SUNNY     98  70  40 W14       29.90F HX 104
FAYETTEVILLE   MOSUNNY  100  66  32 W17G26    29.90F HX 104
BURLINGTON     SUNNY     92  71  50 S9        29.92F HX  98
LAURINBURG     MOSUNNY   99  70  38 SW12      29.92F HX 106
$$

NCZ011-015-027-028-043-044-047-080-103-302100-
NORTHEASTERN NORTH CAROLINA

CITY           SKY/WX    TMP DP  RH WIND       PRES   REMARKS
ROCKY MT-WILSO CLOUDY    94  74  52 W12       29.92R HX 104
GREENVILLE     CLOUDY    86  77  74 S10G17    29.95S HX  97
WASHINGTON     CLOUDY    76  74  91 E10       29.95R
ELIZABETH CITY CLOUDY    77  74  90 S9        30.00R
MANTEO         NOT AVBL
CAPE HATTERAS  CLOUDY    87  79  76 S7        29.98S HX 101
$$

NCZ078-087-090-091-093-098-101-302100-
SOUTHEASTERN NORTH CAROLINA

CITY           SKY/WX    TMP DP  RH WIND       PRES   REMARKS
LUMBERTON      SUNNY     96  70  42 SW14G22   29.92F HX 102
GOLDSBORO      MOSUNNY   97  68  38 W14G20    29.89F HX 102
KINSTON        PTSUNNY   90  73  58 NE9       29.92R HX  98
KENANSVILLE    NOT AVBL
NEW BERN       LGT RAIN  77  72  84 S9        29.95F
CHERRY POINT   CLOUDY    79  73  82 S5        29.96F
BEAUFORT       PTSUNNY   85  77  77 NW8       29.96F HX  95
JACKSONVILLE   CLOUDY    83  77  82 SE10      29.93S
WILMINGTON     PTSUNNY   93  80  65 S10       29.94F HX 112
$$




USA.gov is the U.S. government's official web portal to all federal, state and local government web resources and services.